owner,sensor,date,latitude,longitude,vertical_datum,wind_speed,wind_to_direction,wind_speed_of_gust,qcFlag 
TCOON,ioos:station:TCOON:003:1,2017-12-01T00:00:00Z,26.8015,-97.4706,0.0,5.2,67.0,6.5,'11111222,11111222,11111222' 
TCOON,ioos:station:TCOON:003:1,2017-12-01T00:06:00Z,26.8015,-97.4706,0.0,5.5,66.0,6.5,'11111222,11111222,11111222' 
TCOON,ioos:station:TCOON:003:1,2017-12-01T00:12:00Z,26.8015,-97.4706,0.0,5.4,65.0,6.3,'11111222,11111222,11111222' 
TCOON,ioos:station:TCOON:003:1,2017-12-01T00:18:00Z,26.8015,-97.4706,0.0,5.4,65.0,6.3,'1111122,1111122,1111122' 
TCOON,ioos:station:TCOON:003:1,2017-12-01T00:24:00Z,26.8015,-97.4706,0.0,4.7,66.0,5.9,'11111222,11111222,11111222' 
TCOON,ioos:station:TCOON:003:1,2017-12-01T00:30:00Z,26.8015,-97.4706,0.0,4.3,63.0,5.6,'11111222,11111222,11111222' 
TCOON,ioos:station:TCOON:003:1,2017-12-01T00:36:00Z,26.8015,-97.4706,0.0,3.6,64.0,4.9,'11111222,11111222,11111222' 
TCOON,ioos:station:TCOON:003:1,2017-12-01T00:42:00Z,26.8015,-97.4706,0.0,3.9,73.0,4.8,'11111222,11111222,11111222' 
TCOON,ioos:station:TCOON:003:1,2017-12-01T00:48:00Z,26.8015,-97.4706,0.0,3.7,67.0,4.8,'11111222,11111222,11111222' 
TCOON,ioos:station:TCOON:003:1,2017-12-01T00:54:00Z,26.8015,-97.4706,0.0,4.0,71.0,4.6,'11111222,11111222,11111222' 
TCOON,ioos:station:TCOON:003:1,2017-12-01T01:00:00Z,26.8015,-97.4706,0.0,3.9,72.0,4.9,'11111222,11111222,11111222' 
TCOON,ioos:station:TCOON:003:1,2017-12-01T01:06:00Z,26.8015,-97.4706,0.0,4.0,71.0,5.3,'11111222,11111222,11111222' 
TCOON,ioos:station:TCOON:003:1,2017-12-01T01:12:00Z,26.8015,-97.4706,0.0,4.3,70.0,5.2,'11111222,11111222,11111222' 
TCOON,ioos:station:TCOON:003:1,2017-12-01T01:18:00Z,26.8015,-97.4706,0.0,4.3,70.0,5.2,'1111122,1111122,1111122' 
TCOON,ioos:station:TCOON:003:1,2017-12-01T01:24:00Z,26.8015,-97.4706,0.0,4.1,71.0,4.8,'11111222,11111222,11111222' 
TCOON,ioos:station:TCOON:003:1,2017-12-01T01:30:00Z,26.8015,-97.4706,0.0,3.7,72.0,4.7,'11111222,11111222,11111222' 
TCOON,ioos:station:TCOON:003:1,2017-12-01T01:36:00Z,26.8015,-97.4706,0.0,3.6,76.0,4.1,'11111222,11111222,11111222' 
TCOON,ioos:station:TCOON:003:1,2017-12-01T01:42:00Z,26.8015,-97.4706,0.0,3.8,77.0,4.6,'11111222,11111222,11111222' 
TCOON,ioos:station:TCOON:003:1,2017-12-01T01:48:00Z,26.8015,-97.4706,0.0,3.9,80.0,4.6,'11111222,11111222,11111222' 
TCOON,ioos:station:TCOON:003:1,2017-12-01T01:54:00Z,26.8015,-97.4706,0.0,3.3,79.0,4.1,'11111222,11111222,11111222' 
TCOON,ioos:station:TCOON:003:1,2017-12-01T02:00:00Z,26.8015,-97.4706,0.0,3.6,78.0,4.4,'11111222,11111222,11111222' 
TCOON,ioos:station:TCOON:003:1,2017-12-01T02:06:00Z,26.8015,-97.4706,0.0,2.9,79.0,4.4,'11111222,11111222,11111222' 
TCOON,ioos:station:TCOON:003:1,2017-12-01T02:12:00Z,26.8015,-97.4706,0.0,3.3,79.0,4.0,'11111222,11111222,11111222' 
TCOON,ioos:station:TCOON:003:1,2017-12-01T02:18:00Z,26.8015,-97.4706,0.0,3.3,79.0,4.0,'1111122,1111122,1111122' 
TCOON,ioos:station:TCOON:003:1,2017-12-01T02:24:00Z,26.8015,-97.4706,0.0,2.6,84.0,3.2,'11111222,11111222,11111222' 
TCOON,ioos:station:TCOON:003:1,2017-12-01T02:30:00Z,26.8015,-97.4706,0.0,2.6,86.0,3.3,'11111222,11111222,11111222' 
TCOON,ioos:station:TCOON:003:1,2017-12-01T02:36:00Z,26.8015,-97.4706,0.0,2.8,87.0,3.4,'11111222,11111222,11111222' 
TCOON,ioos:station:TCOON:003:1,2017-12-01T02:42:00Z,26.8015,-97.4706,0.0,2.5,89.0,3.2,'11111222,11111222,11111222' 
TCOON,ioos:station:TCOON:003:1,2017-12-01T02:48:00Z,26.8015,-97.4706,0.0,2.6,92.0,3.0,'11111222,11111222,11111222' 
TCOON,ioos:station:TCOON:003:1,2017-12-01T02:54:00Z,26.8015,-97.4706,0.0,2.7,92.0,3.3,'11111222,11111222,11111222' 
TCOON,ioos:station:TCOON:003:1,2017-12-01T03:00:00Z,26.8015,-97.4706,0.0,2.9,95.0,3.3,'11111222,11111222,11111222' 
TCOON,ioos:station:TCOON:003:1,2017-12-01T03:06:00Z,26.8015,-97.4706,0.0,2.8,89.0,3.3,'11111222,11111222,11111222' 
TCOON,ioos:station:TCOON:003:1,2017-12-01T03:12:00Z,26.8015,-97.4706,0.0,2.6,87.0,3.2,'11111222,11111222,11111222' 
TCOON,ioos:station:TCOON:003:1,2017-12-01T03:18:00Z,26.8015,-97.4706,0.0,2.6,87.0,3.2,'1111122,1111122,1111122' 
TCOON,ioos:station:TCOON:003:1,2017-12-01T03:24:00Z,26.8015,-97.4706,0.0,2.4,84.0,2.9,'11111222,11111222,11111222' 
TCOON,ioos:station:TCOON:003:1,2017-12-01T03:30:00Z,26.8015,-97.4706,0.0,2.3,81.0,2.8,'11111222,11111222,11111222' 
TCOON,ioos:station:TCOON:003:1,2017-12-01T03:36:00Z,26.8015,-97.4706,0.0,2.2,81.0,2.8,'11111222,11111222,11111222' 
TCOON,ioos:station:TCOON:003:1,2017-12-01T03:42:00Z,26.8015,-97.4706,0.0,2.2,83.0,2.6,'11111222,11111222,11111222' 
TCOON,ioos:station:TCOON:003:1,2017-12-01T03:48:00Z,26.8015,-97.4706,0.0,1.9,82.0,2.8,'11111222,11111222,11111222' 
TCOON,ioos:station:TCOON:003:1,2017-12-01T03:54:00Z,26.8015,-97.4706,0.0,2.2,84.0,2.5,'11111222,11111222,11111222' 
TCOON,ioos:station:TCOON:003:1,2017-12-01T04:00:00Z,26.8015,-97.4706,0.0,2.3,89.0,2.8,'11111222,11111222,11111222' 
TCOON,ioos:station:TCOON:003:1,2017-12-01T04:06:00Z,26.8015,-97.4706,0.0,2.4,86.0,2.9,'11111222,11111222,11111222' 
TCOON,ioos:station:TCOON:003:1,2017-12-01T04:12:00Z,26.8015,-97.4706,0.0,2.2,81.0,2.9,'11111222,11111222,11111222' 
TCOON,ioos:station:TCOON:003:1,2017-12-01T04:18:00Z,26.8015,-97.4706,0.0,2.2,81.0,2.9,'1111122,1111122,1111122' 
TCOON,ioos:station:TCOON:003:1,2017-12-01T04:24:00Z,26.8015,-97.4706,0.0,1.9,84.0,2.3,'11111222,11111222,11111222' 
TCOON,ioos:station:TCOON:003:1,2017-12-01T04:30:00Z,26.8015,-97.4706,0.0,1.9,84.0,2.2,'11111222,11111222,11111222' 
TCOON,ioos:station:TCOON:003:1,2017-12-01T04:36:00Z,26.8015,-97.4706,0.0,1.7,81.0,2.4,'11111222,11111222,11111222' 
TCOON,ioos:station:TCOON:003:1,2017-12-01T04:42:00Z,26.8015,-97.4706,0.0,1.5,82.0,1.8,'11111222,11111222,11111222' 
TCOON,ioos:station:TCOON:003:1,2017-12-01T04:48:00Z,26.8015,-97.4706,0.0,1.4,77.0,1.8,'11111222,11111222,11111222' 
TCOON,ioos:station:TCOON:003:1,2017-12-01T04:54:00Z,26.8015,-97.4706,0.0,1.4,87.0,1.6,'11111222,11111222,11111222' 
TCOON,ioos:station:TCOON:003:1,2017-12-01T05:00:00Z,26.8015,-97.4706,0.0,1.3,84.0,1.7,'11111222,11111222,11111222' 
TCOON,ioos:station:TCOON:003:1,2017-12-01T05:06:00Z,26.8015,-97.4706,0.0,1.3,87.0,1.6,'11111222,11111222,11111222' 
TCOON,ioos:station:TCOON:003:1,2017-12-01T05:12:00Z,26.8015,-97.4706,0.0,1.3,89.0,1.5,'11111222,11111222,11111222' 
TCOON,ioos:station:TCOON:003:1,2017-12-01T05:18:00Z,26.8015,-97.4706,0.0,1.3,89.0,1.5,'1111122,1111122,1111122' 
TCOON,ioos:station:TCOON:003:1,2017-12-01T05:24:00Z,26.8015,-97.4706,0.0,1.1,76.0,1.4,'11111222,11111222,11111222' 
TCOON,ioos:station:TCOON:003:1,2017-12-01T05:30:00Z,26.8015,-97.4706,0.0,1.0,62.0,1.2,'11111222,11111222,11111222' 
TCOON,ioos:station:TCOON:003:1,2017-12-01T05:36:00Z,26.8015,-97.4706,0.0,1.0,70.0,1.2,'11111222,11111222,11111222' 
TCOON,ioos:station:TCOON:003:1,2017-12-01T05:42:00Z,26.8015,-97.4706,0.0,0.9,52.0,1.1,'11111222,11111222,11111222' 
TCOON,ioos:station:TCOON:003:1,2017-12-01T05:48:00Z,26.8015,-97.4706,0.0,0.8,54.0,1.0,'11111222,11111222,11111222' 
TCOON,ioos:station:TCOON:003:1,2017-12-01T05:54:00Z,26.8015,-97.4706,0.0,0.7,32.0,0.9,'11111222,11111222,11111222' 
TCOON,ioos:station:TCOON:003:1,2017-12-01T06:00:00Z,26.8015,-97.4706,0.0,0.4,19.0,0.7,'11111222,11111222,11111222' 
TCOON,ioos:station:TCOON:003:1,2017-12-01T06:06:00Z,26.8015,-97.4706,0.0,0.6,7.0,0.6,'11111222,11111222,11111222' 
TCOON,ioos:station:TCOON:003:1,2017-12-01T06:12:00Z,26.8015,-97.4706,0.0,0.2,0.0,0.6,'11111222,11111222,11111222' 
TCOON,ioos:station:TCOON:003:1,2017-12-01T06:18:00Z,26.8015,-97.4706,0.0,0.2,0.0,0.6,'1111122,1114422,1111122' 
TCOON,ioos:station:TCOON:003:1,2017-12-01T06:24:00Z,26.8015,-97.4706,0.0,0.1,319.0,0.4,'11111222,11111222,11111222' 
TCOON,ioos:station:TCOON:003:1,2017-12-01T06:30:00Z,26.8015,-97.4706,0.0,0.0,302.0,0.3,'11111222,11111222,11111222' 
TCOON,ioos:station:TCOON:003:1,2017-12-01T06:36:00Z,26.8015,-97.4706,0.0,1.1,257.0,1.2,'11111222,11111222,11111222' 
TCOON,ioos:station:TCOON:003:1,2017-12-01T06:42:00Z,26.8015,-97.4706,0.0,0.8,259.0,1.2,'11111222,11111222,11111222' 
TCOON,ioos:station:TCOON:003:1,2017-12-01T06:48:00Z,26.8015,-97.4706,0.0,0.5,291.0,0.8,'11111222,11111222,11111222' 
TCOON,ioos:station:TCOON:003:1,2017-12-01T06:54:00Z,26.8015,-97.4706,0.0,0.3,338.0,0.5,'11111222,11111222,11111222' 
TCOON,ioos:station:TCOON:003:1,2017-12-01T07:00:00Z,26.8015,-97.4706,0.0,0.0,339.0,0.3,'11111222,11111222,11111222' 
TCOON,ioos:station:TCOON:003:1,2017-12-01T07:06:00Z,26.8015,-97.4706,0.0,0.1,333.0,0.3,'11111222,11111222,11111222' 
TCOON,ioos:station:TCOON:003:1,2017-12-01T07:12:00Z,26.8015,-97.4706,0.0,0.3,305.0,0.4,'11111222,11111222,11111222' 
TCOON,ioos:station:TCOON:003:1,2017-12-01T07:18:00Z,26.8015,-97.4706,0.0,0.3,305.0,0.4,'1111122,1111122,1111122' 
TCOON,ioos:station:TCOON:003:1,2017-12-01T07:24:00Z,26.8015,-97.4706,0.0,0.8,345.0,1.0,'11111222,11111222,11111222' 
TCOON,ioos:station:TCOON:003:1,2017-12-01T07:30:00Z,26.8015,-97.4706,0.0,1.0,358.0,1.2,'11111222,11111222,11111222' 
TCOON,ioos:station:TCOON:003:1,2017-12-01T07:36:00Z,26.8015,-97.4706,0.0,1.3,6.0,1.5,'11111222,11111222,11111222' 
TCOON,ioos:station:TCOON:003:1,2017-12-01T07:42:00Z,26.8015,-97.4706,0.0,1.2,3.0,1.4,'11111222,11111222,11111222' 
TCOON,ioos:station:TCOON:003:1,2017-12-01T07:48:00Z,26.8015,-97.4706,0.0,1.1,350.0,1.3,'11111222,11111222,11111222' 
TCOON,ioos:station:TCOON:003:1,2017-12-01T07:54:00Z,26.8015,-97.4706,0.0,0.9,348.0,1.1,'11111222,11111222,11111222' 
TCOON,ioos:station:TCOON:003:1,2017-12-01T08:00:00Z,26.8015,-97.4706,0.0,0.6,353.0,0.9,'11111222,11111222,11111222' 
TCOON,ioos:station:TCOON:003:1,2017-12-01T08:06:00Z,26.8015,-97.4706,0.0,0.6,7.0,0.8,'11111222,11111222,11111222' 
TCOON,ioos:station:TCOON:003:1,2017-12-01T08:12:00Z,26.8015,-97.4706,0.0,0.3,351.0,0.6,'11111222,11111222,11111222' 
TCOON,ioos:station:TCOON:003:1,2017-12-01T08:18:00Z,26.8015,-97.4706,0.0,0.3,351.0,0.6,'1111122,1111122,1111122' 
TCOON,ioos:station:TCOON:003:1,2017-12-01T08:24:00Z,26.8015,-97.4706,0.0,0.8,348.0,0.8,'11111222,11111222,11111222' 
TCOON,ioos:station:TCOON:003:1,2017-12-01T08:30:00Z,26.8015,-97.4706,0.0,0.8,347.0,0.9,'11111222,11111222,11111222' 
TCOON,ioos:station:TCOON:003:1,2017-12-01T08:36:00Z,26.8015,-97.4706,0.0,0.3,360.0,0.6,'11111222,11144222,11111222' 
TCOON,ioos:station:TCOON:003:1,2017-12-01T08:42:00Z,26.8015,-97.4706,0.0,0.4,9.0,0.6,'11111222,11111222,11111222' 
TCOON,ioos:station:TCOON:003:1,2017-12-01T08:48:00Z,26.8015,-97.4706,0.0,0.5,6.0,0.6,'11111222,11111222,11111222' 
TCOON,ioos:station:TCOON:003:1,2017-12-01T08:54:00Z,26.8015,-97.4706,0.0,0.5,25.0,0.6,'11111222,11111222,11111222' 
TCOON,ioos:station:TCOON:003:1,2017-12-01T09:00:00Z,26.8015,-97.4706,0.0,0.4,24.0,0.5,'11111222,11111222,11111222' 
TCOON,ioos:station:TCOON:003:1,2017-12-01T09:06:00Z,26.8015,-97.4706,0.0,0.7,50.0,0.9,'11111222,11111222,11111222' 
TCOON,ioos:station:TCOON:003:1,2017-12-01T09:12:00Z,26.8015,-97.4706,0.0,0.7,50.0,1.0,'11111222,11111222,11111222' 
TCOON,ioos:station:TCOON:003:1,2017-12-01T09:18:00Z,26.8015,-97.4706,0.0,0.7,50.0,1.0,'1111122,1111122,1111122' 
TCOON,ioos:station:TCOON:003:1,2017-12-01T09:24:00Z,26.8015,-97.4706,0.0,0.8,33.0,0.9,'11111222,11111222,11111222' 
TCOON,ioos:station:TCOON:003:1,2017-12-01T09:30:00Z,26.8015,-97.4706,0.0,0.9,6.0,1.0,'11111222,11111222,11111222' 
TCOON,ioos:station:TCOON:003:1,2017-12-01T09:36:00Z,26.8015,-97.4706,0.0,1.2,351.0,1.4,'11111222,11111222,11111222' 
TCOON,ioos:station:TCOON:003:1,2017-12-01T09:42:00Z,26.8015,-97.4706,0.0,1.6,344.0,1.7,'11111222,11111222,11111222' 
TCOON,ioos:station:TCOON:003:1,2017-12-01T09:48:00Z,26.8015,-97.4706,0.0,1.3,341.0,1.8,'11111222,11111222,11111222' 
TCOON,ioos:station:TCOON:003:1,2017-12-01T09:54:00Z,26.8015,-97.4706,0.0,1.1,339.0,1.3,'11111222,11111222,11111222' 
TCOON,ioos:station:TCOON:003:1,2017-12-01T10:00:00Z,26.8015,-97.4706,0.0,1.0,351.0,1.2,'11111222,11111222,11111222' 
TCOON,ioos:station:TCOON:003:1,2017-12-01T10:06:00Z,26.8015,-97.4706,0.0,1.2,4.0,1.4,'11111222,11111222,11111222' 
TCOON,ioos:station:TCOON:003:1,2017-12-01T10:12:00Z,26.8015,-97.4706,0.0,0.9,17.0,1.2,'11111222,11111222,11111222' 
TCOON,ioos:station:TCOON:003:1,2017-12-01T10:18:00Z,26.8015,-97.4706,0.0,0.9,17.0,1.2,'1111122,1111122,1111122' 
TCOON,ioos:station:TCOON:003:1,2017-12-01T10:24:00Z,26.8015,-97.4706,0.0,0.7,28.0,0.9,'11111222,11111222,11111222' 
TCOON,ioos:station:TCOON:003:1,2017-12-01T10:30:00Z,26.8015,-97.4706,0.0,1.1,3.0,1.3,'11111222,11111222,11111222' 
TCOON,ioos:station:TCOON:003:1,2017-12-01T10:36:00Z,26.8015,-97.4706,0.0,1.4,350.0,1.5,'11111222,11111222,11111222' 
TCOON,ioos:station:TCOON:003:1,2017-12-01T10:42:00Z,26.8015,-97.4706,0.0,1.8,338.0,1.9,'11111222,11111222,11111222' 
TCOON,ioos:station:TCOON:003:1,2017-12-01T10:48:00Z,26.8015,-97.4706,0.0,1.6,331.0,1.9,'11111222,11111222,11111222' 
TCOON,ioos:station:TCOON:003:1,2017-12-01T10:54:00Z,26.8015,-97.4706,0.0,2.0,332.0,2.2,'11111222,11111222,11111222' 
TCOON,ioos:station:TCOON:003:1,2017-12-01T11:00:00Z,26.8015,-97.4706,0.0,2.1,338.0,2.4,'11111222,11111222,11111222' 
TCOON,ioos:station:TCOON:003:1,2017-12-01T11:06:00Z,26.8015,-97.4706,0.0,2.2,331.0,2.4,'11111222,11111222,11111222' 
TCOON,ioos:station:TCOON:003:1,2017-12-01T11:12:00Z,26.8015,-97.4706,0.0,2.5,333.0,2.8,'11111222,11111222,11111222' 
TCOON,ioos:station:TCOON:003:1,2017-12-01T11:18:00Z,26.8015,-97.4706,0.0,2.5,333.0,2.8,'1111122,1111122,1111122' 
TCOON,ioos:station:TCOON:003:1,2017-12-01T11:24:00Z,26.8015,-97.4706,0.0,2.9,319.0,3.2,'11111222,11111222,11111222' 
TCOON,ioos:station:TCOON:003:1,2017-12-01T11:30:00Z,26.8015,-97.4706,0.0,3.5,325.0,3.8,'11111222,11111222,11111222' 
TCOON,ioos:station:TCOON:003:1,2017-12-01T11:36:00Z,26.8015,-97.4706,0.0,3.1,305.0,3.8,'11111222,11111222,11111222' 
TCOON,ioos:station:TCOON:003:1,2017-12-01T11:42:00Z,26.8015,-97.4706,0.0,3.5,301.0,3.9,'11111222,11111222,11111222' 
TCOON,ioos:station:TCOON:003:1,2017-12-01T11:48:00Z,26.8015,-97.4706,0.0,3.6,305.0,3.8,'11111222,11111222,11111222' 
TCOON,ioos:station:TCOON:003:1,2017-12-01T11:54:00Z,26.8015,-97.4706,0.0,3.6,303.0,3.9,'11111222,11111222,11111222' 
TCOON,ioos:station:TCOON:003:1,2017-12-01T12:00:00Z,26.8015,-97.4706,0.0,3.8,301.0,4.2,'11111222,11111222,11111222' 
TCOON,ioos:station:TCOON:003:1,2017-12-01T12:06:00Z,26.8015,-97.4706,0.0,4.1,300.0,4.4,'11111222,11111222,11111222' 
TCOON,ioos:station:TCOON:003:1,2017-12-01T12:12:00Z,26.8015,-97.4706,0.0,3.9,298.0,4.3,'11111222,11111222,11111222' 
TCOON,ioos:station:TCOON:003:1,2017-12-01T12:18:00Z,26.8015,-97.4706,0.0,3.9,298.0,4.3,'1111122,1111122,1111122' 
TCOON,ioos:station:TCOON:003:1,2017-12-01T12:24:00Z,26.8015,-97.4706,0.0,3.6,298.0,4.3,'11111222,11111222,11111222' 
TCOON,ioos:station:TCOON:003:1,2017-12-01T12:30:00Z,26.8015,-97.4706,0.0,3.6,303.0,4.1,'11111222,11111222,11111222' 
TCOON,ioos:station:TCOON:003:1,2017-12-01T12:36:00Z,26.8015,-97.4706,0.0,3.8,296.0,4.1,'11111222,11111222,11111222' 
TCOON,ioos:station:TCOON:003:1,2017-12-01T12:42:00Z,26.8015,-97.4706,0.0,3.8,301.0,4.3,'11111222,11111222,11111222' 
TCOON,ioos:station:TCOON:003:1,2017-12-01T12:48:00Z,26.8015,-97.4706,0.0,3.8,302.0,4.4,'11111222,11111222,11111222' 
TCOON,ioos:station:TCOON:003:1,2017-12-01T12:54:00Z,26.8015,-97.4706,0.0,3.8,307.0,4.3,'11111222,11111222,11111222' 
TCOON,ioos:station:TCOON:003:1,2017-12-01T13:00:00Z,26.8015,-97.4706,0.0,3.9,307.0,4.3,'11111222,11111222,11111222' 
TCOON,ioos:station:TCOON:003:1,2017-12-01T13:06:00Z,26.8015,-97.4706,0.0,4.2,307.0,4.7,'11111222,11111222,11111222' 
TCOON,ioos:station:TCOON:003:1,2017-12-01T13:12:00Z,26.8015,-97.4706,0.0,4.2,311.0,4.5,'11111222,11111222,11111222' 
TCOON,ioos:station:TCOON:003:1,2017-12-01T13:18:00Z,26.8015,-97.4706,0.0,4.2,311.0,4.5,'1111122,1111122,1111122' 
TCOON,ioos:station:TCOON:003:1,2017-12-01T13:24:00Z,26.8015,-97.4706,0.0,4.1,307.0,4.6,'11111222,11111222,11111222' 
TCOON,ioos:station:TCOON:003:1,2017-12-01T13:30:00Z,26.8015,-97.4706,0.0,4.3,307.0,4.9,'11111222,11111222,11111222' 
TCOON,ioos:station:TCOON:003:1,2017-12-01T13:36:00Z,26.8015,-97.4706,0.0,4.4,309.0,4.8,'11111222,11111222,11111222' 
TCOON,ioos:station:TCOON:003:1,2017-12-01T13:42:00Z,26.8015,-97.4706,0.0,3.9,303.0,4.5,'11111222,11111222,11111222' 
TCOON,ioos:station:TCOON:003:1,2017-12-01T13:48:00Z,26.8015,-97.4706,0.0,3.8,311.0,4.2,'11111222,11111222,11111222' 
TCOON,ioos:station:TCOON:003:1,2017-12-01T13:54:00Z,26.8015,-97.4706,0.0,4.1,318.0,4.5,'11111222,11111222,11111222' 
TCOON,ioos:station:TCOON:003:1,2017-12-01T14:00:00Z,26.8015,-97.4706,0.0,4.0,317.0,4.4,'11111222,11111222,11111222' 
TCOON,ioos:station:TCOON:003:1,2017-12-01T14:06:00Z,26.8015,-97.4706,0.0,4.2,322.0,4.6,'11111222,11111222,11111222' 
TCOON,ioos:station:TCOON:003:1,2017-12-01T14:12:00Z,26.8015,-97.4706,0.0,4.1,323.0,4.7,'11111222,11111222,11111222' 
TCOON,ioos:station:TCOON:003:1,2017-12-01T14:18:00Z,26.8015,-97.4706,0.0,4.1,323.0,4.7,'1111122,1111122,1111122' 
TCOON,ioos:station:TCOON:003:1,2017-12-01T14:24:00Z,26.8015,-97.4706,0.0,3.8,315.0,4.3,'11111222,11111222,11111222' 
TCOON,ioos:station:TCOON:003:1,2017-12-01T14:30:00Z,26.8015,-97.4706,0.0,3.8,314.0,4.3,'11111222,11111222,11111222' 
TCOON,ioos:station:TCOON:003:1,2017-12-01T14:36:00Z,26.8015,-97.4706,0.0,3.3,314.0,4.2,'11111222,11111222,11111222' 
TCOON,ioos:station:TCOON:003:1,2017-12-01T14:42:00Z,26.8015,-97.4706,0.0,3.2,310.0,3.7,'11111222,11111222,11111222' 
TCOON,ioos:station:TCOON:003:1,2017-12-01T14:48:00Z,26.8015,-97.4706,0.0,2.9,311.0,3.4,'11111222,11111222,11111222' 
TCOON,ioos:station:TCOON:003:1,2017-12-01T14:54:00Z,26.8015,-97.4706,0.0,3.0,311.0,3.5,'11111222,11111222,11111222' 
TCOON,ioos:station:TCOON:003:1,2017-12-01T15:00:00Z,26.8015,-97.4706,0.0,3.0,318.0,3.4,'11111222,11111222,11111222' 
TCOON,ioos:station:TCOON:003:1,2017-12-01T15:06:00Z,26.8015,-97.4706,0.0,2.9,318.0,3.2,'11111222,11111222,11111222' 
TCOON,ioos:station:TCOON:003:1,2017-12-01T15:12:00Z,26.8015,-97.4706,0.0,2.9,316.0,3.2,'11111222,11111222,11111222' 
TCOON,ioos:station:TCOON:003:1,2017-12-01T15:18:00Z,26.8015,-97.4706,0.0,2.9,316.0,3.2,'1111122,1111122,1111122' 
TCOON,ioos:station:TCOON:003:1,2017-12-01T15:24:00Z,26.8015,-97.4706,0.0,3.0,323.0,3.2,'11111222,11111222,11111222' 
TCOON,ioos:station:TCOON:003:1,2017-12-01T15:30:00Z,26.8015,-97.4706,0.0,3.0,326.0,3.3,'11111222,11111222,11111222' 
TCOON,ioos:station:TCOON:003:1,2017-12-01T15:36:00Z,26.8015,-97.4706,0.0,3.0,334.0,3.4,'11111222,11111222,11111222' 
TCOON,ioos:station:TCOON:003:1,2017-12-01T15:42:00Z,26.8015,-97.4706,0.0,2.8,334.0,3.3,'11111222,11111222,11111222' 
TCOON,ioos:station:TCOON:003:1,2017-12-01T15:48:00Z,26.8015,-97.4706,0.0,2.6,339.0,3.5,'11111222,11111222,11111222' 
TCOON,ioos:station:TCOON:003:1,2017-12-01T15:54:00Z,26.8015,-97.4706,0.0,3.3,351.0,4.0,'11111222,11111222,11111222' 
TCOON,ioos:station:TCOON:003:1,2017-12-01T16:00:00Z,26.8015,-97.4706,0.0,4.2,18.0,5.3,'11111222,11111222,11111222' 
TCOON,ioos:station:TCOON:003:1,2017-12-01T16:06:00Z,26.8015,-97.4706,0.0,4.3,39.0,5.5,'11111222,11111222,11111222' 
TCOON,ioos:station:TCOON:003:1,2017-12-01T16:12:00Z,26.8015,-97.4706,0.0,3.7,27.0,5.0,'11111222,11111222,11111222' 
TCOON,ioos:station:TCOON:003:1,2017-12-01T16:18:00Z,26.8015,-97.4706,0.0,3.7,27.0,5.0,'1111122,1111122,1111122' 
TCOON,ioos:station:TCOON:003:1,2017-12-01T16:24:00Z,26.8015,-97.4706,0.0,2.5,63.0,4.7,'11111222,11111222,11111222' 
TCOON,ioos:station:TCOON:003:1,2017-12-01T16:30:00Z,26.8015,-97.4706,0.0,3.0,58.0,4.9,'11111222,11111222,11111222' 
TCOON,ioos:station:TCOON:003:1,2017-12-01T16:36:00Z,26.8015,-97.4706,0.0,2.9,48.0,4.7,'11111222,11111222,11111222' 
TCOON,ioos:station:TCOON:003:1,2017-12-01T16:42:00Z,26.8015,-97.4706,0.0,3.7,51.0,4.6,'11111222,11111222,11111222' 
TCOON,ioos:station:TCOON:003:1,2017-12-01T16:48:00Z,26.8015,-97.4706,0.0,2.9,78.0,4.7,'11111222,11111222,11111222' 
TCOON,ioos:station:TCOON:003:1,2017-12-01T16:54:00Z,26.8015,-97.4706,0.0,2.6,72.0,5.0,'11111222,11111222,11111222' 
TCOON,ioos:station:TCOON:003:1,2017-12-01T17:00:00Z,26.8015,-97.4706,0.0,3.2,63.0,4.7,'11111222,11111222,11111222' 
TCOON,ioos:station:TCOON:003:1,2017-12-01T17:06:00Z,26.8015,-97.4706,0.0,3.6,76.0,4.8,'11111222,11111222,11111222' 
TCOON,ioos:station:TCOON:003:1,2017-12-01T17:12:00Z,26.8015,-97.4706,0.0,2.9,116.0,5.0,'11111222,11111222,11111222' 
TCOON,ioos:station:TCOON:003:1,2017-12-01T17:18:00Z,26.8015,-97.4706,0.0,2.9,116.0,5.0,'1111122,1111122,1111122' 
TCOON,ioos:station:TCOON:003:1,2017-12-01T17:24:00Z,26.8015,-97.4706,0.0,3.3,64.0,5.5,'11111222,11111222,11111222' 
TCOON,ioos:station:TCOON:003:1,2017-12-01T17:30:00Z,26.8015,-97.4706,0.0,2.4,55.0,5.6,'11111222,11111222,11111222' 
TCOON,ioos:station:TCOON:003:1,2017-12-01T17:36:00Z,26.8015,-97.4706,0.0,3.7,79.0,5.3,'11111222,11111222,11111222' 
TCOON,ioos:station:TCOON:003:1,2017-12-01T17:42:00Z,26.8015,-97.4706,0.0,2.8,84.0,5.2,'11111222,11111222,11111222' 
TCOON,ioos:station:TCOON:003:1,2017-12-01T17:48:00Z,26.8015,-97.4706,0.0,2.7,67.0,4.2,'11111222,11111222,11111222' 
TCOON,ioos:station:TCOON:003:1,2017-12-01T17:54:00Z,26.8015,-97.4706,0.0,2.1,88.0,4.0,'11111222,11111222,11111222' 
TCOON,ioos:station:TCOON:003:1,2017-12-01T18:00:00Z,26.8015,-97.4706,0.0,3.7,67.0,5.2,'11111222,11111222,11111222' 
TCOON,ioos:station:TCOON:003:1,2017-12-01T18:06:00Z,26.8015,-97.4706,0.0,3.0,66.0,4.2,'11111222,11111222,11111222' 
TCOON,ioos:station:TCOON:003:1,2017-12-01T18:12:00Z,26.8015,-97.4706,0.0,3.0,103.0,4.5,'11111222,11111222,11111222' 
TCOON,ioos:station:TCOON:003:1,2017-12-01T18:18:00Z,26.8015,-97.4706,0.0,3.0,103.0,4.5,'1111122,1111122,1111122' 
TCOON,ioos:station:TCOON:003:1,2017-12-01T18:24:00Z,26.8015,-97.4706,0.0,3.4,67.0,4.9,'11111222,11111222,11111222' 
TCOON,ioos:station:TCOON:003:1,2017-12-01T18:30:00Z,26.8015,-97.4706,0.0,3.3,92.0,5.1,'11111222,11111222,11111222' 
TCOON,ioos:station:TCOON:003:1,2017-12-01T18:36:00Z,26.8015,-97.4706,0.0,3.8,91.0,5.4,'11111222,11111222,11111222' 
TCOON,ioos:station:TCOON:003:1,2017-12-01T18:42:00Z,26.8015,-97.4706,0.0,3.1,116.0,5.5,'11111222,11111222,11111222' 
TCOON,ioos:station:TCOON:003:1,2017-12-01T18:48:00Z,26.8015,-97.4706,0.0,3.9,102.0,5.9,'11111222,11111222,11111222' 
TCOON,ioos:station:TCOON:003:1,2017-12-01T18:54:00Z,26.8015,-97.4706,0.0,5.0,91.0,6.1,'11111222,11111222,11111222' 
TCOON,ioos:station:TCOON:003:1,2017-12-01T19:00:00Z,26.8015,-97.4706,0.0,4.4,71.0,5.3,'11111222,11111222,11111222' 
TCOON,ioos:station:TCOON:003:1,2017-12-01T19:06:00Z,26.8015,-97.4706,0.0,4.9,95.0,5.8,'11111222,11111222,11111222' 
TCOON,ioos:station:TCOON:003:1,2017-12-01T19:12:00Z,26.8015,-97.4706,0.0,4.2,112.0,5.2,'11111222,11111222,11111222' 
TCOON,ioos:station:TCOON:003:1,2017-12-01T19:18:00Z,26.8015,-97.4706,0.0,4.2,112.0,5.2,'1111122,1111122,1111122' 
TCOON,ioos:station:TCOON:003:1,2017-12-01T19:24:00Z,26.8015,-97.4706,0.0,3.4,84.0,4.6,'11111222,11111222,11111222' 
TCOON,ioos:station:TCOON:003:1,2017-12-01T19:30:00Z,26.8015,-97.4706,0.0,4.2,116.0,5.6,'11111222,11111222,11111222' 
TCOON,ioos:station:TCOON:003:1,2017-12-01T19:36:00Z,26.8015,-97.4706,0.0,4.1,101.0,5.6,'11111222,11111222,11111222' 
TCOON,ioos:station:TCOON:003:1,2017-12-01T19:42:00Z,26.8015,-97.4706,0.0,3.8,112.0,5.1,'11111222,11111222,11111222' 
TCOON,ioos:station:TCOON:003:1,2017-12-01T19:48:00Z,26.8015,-97.4706,0.0,4.0,98.0,5.7,'11111222,11111222,11111222' 
TCOON,ioos:station:TCOON:003:1,2017-12-01T19:54:00Z,26.8015,-97.4706,0.0,3.8,109.0,4.8,'11111222,11111222,11111222' 
TCOON,ioos:station:TCOON:003:1,2017-12-01T20:00:00Z,26.8015,-97.4706,0.0,3.6,98.0,5.6,'11111222,11111222,11111222' 
TCOON,ioos:station:TCOON:003:1,2017-12-01T20:06:00Z,26.8015,-97.4706,0.0,3.6,90.0,5.4,'11111222,11111222,11111222' 
TCOON,ioos:station:TCOON:003:1,2017-12-01T20:12:00Z,26.8015,-97.4706,0.0,4.4,87.0,5.0,'11111222,11111222,11111222' 
TCOON,ioos:station:TCOON:003:1,2017-12-01T20:18:00Z,26.8015,-97.4706,0.0,4.4,87.0,5.0,'1111122,1111122,1111122' 
TCOON,ioos:station:TCOON:003:1,2017-12-01T20:24:00Z,26.8015,-97.4706,0.0,3.0,89.0,5.1,'11111222,11111222,11111222' 